Regional Weather Roundup
Issued by NWS Newport/Morehead, NC

Home | Current Version | Previous Version | Text Only | Print | Product List | Glossary On
Versions: 1 2 3 4 5 6 7 8 9 10 11 12 13 14 15 16 17 18 19 20 21 22 23 24 25 26 27 28 29 30 31 32 33 34 35 36 37 38 39 40 41 42 43 44 45 46 47 48 49 50
000
ASUS42 KMHX 271724
RWRMHX
WEATHER ROUNDUP FOR EASTERN NORTH CAROLINA
NATIONAL WEATHER SERVICE NEWPORT/MOREHEAD CITY NC
1200 PM EST FRI FEB 27 2015

NOTE: "FAIR" INDICATES FEW OR NO CLOUDS BELOW 12,000 FEET
WITH NO SIGNIFICANT WEATHER AND/OR OBSTRUCTIONS TO VISIBILITY

NCZ015>017-031-032-045>047-102-103-271800-
NORTH COAST

CITY           SKY/WX    TMP DP  RH WIND       PRES   REMARKS
EDENTON        SUNNY     42  31  63 N5        30.38S
ELIZABETH CITY SUNNY     41  28  60 N6        30.38R
KITTY HAWK     SUNNY     39  30  70 N9        30.36R
MANTEO         SUNNY     39  27  60 N13       30.37S

$$

NCZ045>047-081-094-103-104-271800-
CENTRAL COAST

CITY           SKY/WX    TMP DP  RH WIND       PRES   REMARKS
FRISCO         PTSUNNY   39  31  72 N10G18    30.34R
SWANQUARTER      N/A     45 N/A N/A NE5G12    30.33S

$$

NCZ095-097-098-100-101-271800-
SOUTHERN COAST

CITY           SKY/WX    TMP DP  RH WIND       PRES   REMARKS
BEAUFORT       PTSUNNY   44  30  57 N14       30.37R
CEDAR ISLAND     N/A     37 N/A N/A NW14      30.41R
JACKSONVILLE   NOT AVBL
PINEY ISLAND     N/A    N/A N/A N/A MISG      30.37R
WILMINGTON     MOSUNNY   46  32  58 N7        30.38R


$$

NCZ011>013-027>030-043-044-078>080-089-090>093-098-271800-
COASTAL PLAIN

CITY           SKY/WX    TMP DP  RH WIND       PRES   REMARKS
AHOSKIE        MOSUNNY   40  30  69 CALM      30.39R
CLINTON        MOSUNNY   48  32  53 NE7       30.39F
ELIZABETHTOWN  SUNNY     47  29  49 NE3       30.38F
GOLDSBORO      SUNNY     45  40  83 NW2       30.37R
GREENVILLE     SUNNY     43  32  65 NW7       30.39S
HAVELOCK       PTSUNNY   44  29  55 N10       30.39R
KENANSVILLE    MOSUNNY   45  31  59 N8        30.39F
KINSTON        MOSUNNY   45  32  61 NE7       30.40R
NEW BERN       MOSUNNY   44  30  57 NE9       30.39R
RICHLANDS      MOSUNNY   45  30  57 N3        30.38F
ROCKY MOUNT    SUNNY     43  30  60 VRB5      30.39R
WASHINGTON     SUNNY     43  32  64 N7        30.39R
WHITEVILLE     MOSUNNY   47  31  54 NE7       30.37F

$$

AMZ130-135-150-152-154-156-158-170-250-252-270-ANZ085-086-088-633-658-670-271800-
MARINE OBSERVATIONS

STATION/POSITION TIME  TEMP    WIND        PRES    WAVE   SWELL
                       AIR SEA DIR/SP/G            HT/PER HT/PER
                 (UTC) (F)     (DEG/KT/KT) (MB)    (FT/S) (FT/S)
CHESAPEAKE LIGHT 1700   33     340/  8/  9 1029.4
64 E VA BEACH    1650   42 60  360/ 16/ 17 1026.9    7/11   7/11
DUCK             1700   34 34   10/ 10/ 10 1027.6
2 E DUCK         1611      35                N/A     6/11   3/11
10 NE DUCK       1622      36                N/A     7/11   3/11
OREGON INLET     1700   38 36  340/ 13/ 19 1028.2
HATTERAS CG      1700   38 40  360/ 15/ 19 1027.8
CAPE LOOKOUT     1700   41     360/ 12/ 15 1027.9
BEAUFORT LAB     1700   42 40   10/ 12/ 14 1027.4
27 SE WRIGHTSVLE NOT AVBL
5 SE WRIGHTSVLE  NOT AVBL
225 S CAPE HAT   1650   63 70  350/ 10/ 14 1023.2    9/11   8/11
41 SE CHARLESTON 1650   48 66   30/ 16/ 21 1027.9    5/10   3/10

$$



USA.gov is the U.S. government's official web portal to all federal, state and local government web resources and services.